Location: Ambuletum
(45.0833°N, 10.9500°E)
Time: 20:28:32
(UTC+00:00)

Daily predictions for brighter satellites

Satellite Brightness Start Highest point End
(mag) Time Altitude Azimuth Time Altitude Azimuth Time Altitude Azimuth
ALOS 2.9 15:59:46 10° S 16:04:23 62° W 16:09:02 10° NNW
Genesis I 3.7 16:01:40 10° NNW 16:05:21 38° NE 16:08:56 10° ESE
PSLV R/B 4.3 16:02:34 10° NNE 16:06:34 45° E 16:10:30 10° S
Cosmos 1862 Rocket 3.6 16:02:46 10° S 16:07:05 65° E 16:11:28 10° NNE
COSMOS 2428 3.6 16:03:25 10° SW 16:08:52 47° WNW 16:14:23 10° NNE
Cosmos 1666 3.3 16:08:30 10° N 16:11:54 32° ENE 16:15:17 10° SE
Helios 1A Rocket 3.5 16:11:25 10° S 16:15:29 64° WSW 16:19:33 10° NNW
Meteor 1-5 Rocket 4.4 16:11:03 10° NNW 16:16:32 75° W 16:21:51 10° S
Cosmos 292 Rocket 3.8 16:14:14 10° NNW 16:19:03 60° ENE 16:23:50 10° SSE
CZ-4B R/B 3.9 16:14:44 10° S 16:20:00 60° WSW 16:25:24 10° NNW
Shenzhou-11 Module 3.7 16:17:44 10° W 16:20:10 28° SSW 16:22:35 10° SE
FALCON 9 DEB 3.2 16:19:55 10° WSW 16:23:25 79° NNW 16:26:37 12° NE
Okean O Rocket 2.8 16:21:47 10° S 16:25:57 47° W 16:30:11 10° NNW
RESURS DK-1 4.3 16:23:50 10° WSW 16:27:15 25° NW 16:30:42 10° N
Cosmos 2278 Rocket 3.1 16:24:03 10° NW 16:29:33 54° WSW 16:35:02 10° S
Cosmos 2360 Rocket 4.5 16:26:35 10° WNW 16:29:46 15° NW 16:32:59 10° N
YAOGAN 6 3.9 16:28:46 10° ESE 16:31:23 20° ENE 16:34:03 10° NNE
Cosmos 1092 Rocket 4.1 16:26:00 10° S 16:32:08 58° E 16:38:15 10° NNE
ATLAS 2AS CENTAUR R/B 4.4 16:26:43 10° W 16:33:30 29° NNW 16:40:11 10° NNE
IRS-1C Rocket 4.1 16:28:26 10° SSE 16:33:42 82° ENE 16:38:59 10° NNW
Cosmos 2242 Rocket 3.6 16:29:20 10° S 16:33:53 79° E 16:38:29 10° N
Cosmos 1867 4.0 16:30:20 10° NNW 16:35:28 39° NE 16:40:33 10° ESE
Feng Yun 1-1 Rocket 4.1 16:30:38 10° SSE 16:36:00 79° ENE 16:41:26 10° NNW
Cosmos 1536 3.0 16:35:08 10° NNW 16:39:09 76° W 16:43:07 10° S
Cosmos 2369 Rocket 3.3 16:35:41 10° N 16:40:02 22° NE 16:43:44 12° E
ISS -0.5 16:38:53 10° W 16:40:50 15° SW 16:42:47 10° S
Cosmos 1908 Rocket 3.5 16:38:25 10° N 16:42:50 79° E 16:47:11 10° SSE
Okean 1-7 3.2 16:40:52 10° SSE 16:45:02 49° E 16:49:17 10° NNE
SL-16 R/B 2.3 16:40:13 10° S 16:45:46 57° ESE 16:51:11 11° NNE
Cosmos 1743 3.3 16:42:57 10° N 16:46:33 35° ENE 16:50:07 10° SE
Lacrosse 5 rocket 3.0 16:43:54 10° WNW 16:47:24 24° NNW 16:50:16 12° NNE
BREEZE-M DEB (TANK) 4.4 16:45:38 10° W 16:47:40 21° SW 16:49:31 10° SSE
Lacrosse 5 3.6 16:46:16 10° SSE 16:49:07 15° ESE 16:50:32 14° E
CORIOLIS 4.1 16:43:50 10° SSE 16:49:17 85° ENE 16:54:46 10° NNW
Okean-O 2.6 16:45:13 10° SSE 16:49:33 58° ENE 16:53:56 10° N
FengYun 1-2 T 4.5 16:44:49 10° SE 16:49:58 44° ENE 16:55:10 10° N
COSMO-SKYMED 1 3.3 16:47:07 13° NE 16:50:23 31° E 16:54:16 10° SSE
SL-4 R/B 3.0 16:50:08 10° WNW 16:53:32 30° N 16:55:22 21° NE
STARLINK-52 3.5 16:50:29 10° WSW 16:53:56 59° NNW 16:55:56 23° NE
Cosmos 2237 Rocket 3.0 16:48:38 10° SW 16:54:10 51° WNW 16:59:43 10° NNE
STARLINK-60 4.0 16:51:16 10° W 16:54:27 38° NNW 16:56:14 21° NE
YAOGAN 1 3.5 16:50:56 10° ESE 16:54:31 26° ENE 16:58:06 10° N
Cosmos 1190 Rocket 4.1 16:50:59 10° S 16:56:01 53° ESE 17:00:22 14° NNE
USA 215 3.5 16:51:47 14° NE 16:57:27 66° NNW 17:03:54 10° WSW
Okean 1 3.6 16:54:21 10° SSE 16:58:08 45° E 17:01:10 15° NNE
BREEZE-M R/B 3.2 16:52:55 10° WNW 16:58:16 48° N 16:59:47 27° ENE
Aureole 1 Rocket 2.9 16:57:41 10° SW 17:00:36 52° WNW 17:03:35 12° NNE
Cosmos 2333 Rocket 4.3 16:56:26 10° W 17:00:48 22° NW 17:05:12 10° N
STARLINK-29 3.8 16:58:41 10° WSW 17:02:07 48° NNW 17:03:47 26° NE
Cosmos 2219 Rocket 4.3 16:58:41 10° W 17:02:51 21° NW 17:07:03 10° N
COBE Rocket 4.2 17:00:50 10° N 17:05:28 66° WNW 17:10:09 10° SSW
Cosmos 614 Rocket 3.8 17:00:38 10° SSW 17:05:43 78° ESE 17:10:13 13° NNE
S3M 4.4 17:00:42 10° N 17:06:28 39° ENE 17:12:08 10° SE
Cosmos 1943 Rocket 2.6 17:01:31 10° NNW 17:06:46 38° NE 17:11:12 14° ESE
Cosmos 1428 Rocket 4.4 17:01:30 10° S 17:07:36 68° E 17:13:49 10° NNE
CZ-4 R/B 1.5 17:08:34 10° SE 17:12:16 45° ENE 17:15:58 10° N
Cosmos 921 Rocket 3.1 17:08:16 10° NNW 17:12:34 76° WSW 17:16:55 10° SSE
Meteor 2-4 Rocket 4.4 17:07:48 10° SSE 17:12:53 32° E 17:14:55 25° NE
Cosmos 1174 4.3 17:11:03 10° SW 17:16:01 66° NW 17:18:27 23° NNE
CZ-4C R/B 3.3 17:12:32 10° SSE 17:16:08 22° ESE 17:16:08 22° ESE
STARLINK-43 3.4 17:12:39 10° SW 17:16:20 64° SE 17:17:19 43° E
Cosmos 1553 Rocket 4.0 17:11:33 10° N 17:17:53 62° ENE 17:24:14 10° SSE
CSL-04 Rocket 3.7 17:14:49 10° SE 17:19:52 49° ENE 17:24:59 10° N
Meteor 1-19 Rocket 4.2 17:15:33 10° S 17:20:53 54° E 17:25:02 16° NNE
Okean 3 3.9 17:17:16 10° SSE 17:21:03 38° E 17:21:03 38° E
Cosmos 489 Rocket 4.4 17:21:10 10° NNW 17:27:33 75° ENE 17:33:54 10° SSE
Cosmos 2026 Rocket 4.1 17:21:43 10° SSW 17:27:46 76° W 17:33:52 10° N
BREEZE-M DEB (TANK) 1.8 17:25:32 10° W 17:29:35 87° SSW 17:29:56 67° ESE
Cosmos 1140 Rocket 3.3 17:24:41 10° SSW 17:29:48 83° ESE 17:32:58 24° NNE
STARLINK-80 3.7 17:26:16 10° SW 17:29:55 48° SE 17:30:07 47° SE
Envisat 3.5 17:26:11 10° S 17:31:12 63° W 17:36:16 10° NNW
USA 267 3.6 17:25:04 10° SE 17:31:34 64° SW 17:38:04 10° NW
Cosmos 1975 2.6 17:28:24 10° N 17:32:25 79° E 17:36:25 10° SSE
NOSS 3-1 (C) 4.2 17:27:05 10° NNW 17:34:11 49° NE 17:38:00 30° E
Meteor 1-12 Rocket 4.4 17:31:19 10° N 17:37:02 52° ENE 17:42:37 10° SSE
SKYMED 2 3.6 17:35:47 21° N 17:38:38 81° WNW 17:42:58 10° SSW
Cosmos 1023 Rocket 4.5 17:34:04 10° SSW 17:39:09 80° WNW 17:42:11 25° NNE
CSL-04 Debris 4.0 17:34:51 10° SSE 17:40:17 75° ENE 17:45:43 10° N
Cosmos 407 Rocket 4.1 17:36:21 10° SW 17:41:27 56° WNW 17:45:31 16° N
Cosmos 2263 4.5 17:38:37 10° NNW 17:44:11 45° ENE 17:44:24 45° ENE
USA 229 DEB 4.0 17:37:32 10° NNW 17:44:35 54° NE 17:47:13 38° E
USA 229 4.0 17:37:38 10° NNW 17:44:40 53° NE 17:47:15 38° E
IRIDIUM 106 4.3 17:43:17 10° SSE 17:48:23 58° E 17:48:58 54° ENE
Cosmos 1417 Rocket 4.5 17:43:27 10° N 17:49:36 83° W 17:55:45 10° S
Okean 2 Rocket 3.1 17:45:13 10° N 17:49:43 83° W 17:54:13 10° S
NOSS 3-1 (A) 4.3 17:42:59 10° NNW 17:49:56 44° NE 17:51:33 39° ENE
Cosmos 2221 Rocket 3.7 17:47:51 10° SSW 17:52:18 75° W 17:54:06 36° N
Cosmos 1515 4.4 17:49:47 10° S 17:52:24 43° S 17:52:24 43° S
Abrixas rocket 4.1 17:53:14 10° SW 17:54:41 25° SW 17:54:41 25° SW
Meteor 2-9 Rocket 4.5 17:58:03 10° NNW 18:03:53 70° W 18:09:35 10° S
Meteor 1-13 Rocket 4.4 18:00:24 10° S 18:04:57 53° SE 18:04:57 53° SE
NOAA 11 4.1 18:00:44 10° SSE 18:06:12 86° WSW 18:11:44 10° NNW
Cosmos 1241 Rocket 4.5 18:03:21 10° SW 18:09:44 78° NW 18:11:36 48° NNE
Cosmos 1943 3.5 18:06:03 10° S 18:10:31 51° SSE 18:10:31 51° SSE
CZ-3B R/B 4.2 18:14:22 10° S 18:16:12 12° SSE 18:16:12 12° SSE
Cosmos 1655 Rocket 4.3 18:10:45 10° SSW 18:17:01 67° W 18:23:17 10° N
Cosmos 2369 Rocket 2.3 18:19:00 10° NNW 18:24:37 70° WSW 18:25:39 57° SSW
Lacrosse 5 rocket 4.1 18:25:24 10° NW 18:25:54 12° NNW 18:25:54 12° NNW
SL-16 R/B 4.0 18:25:31 10° WSW 18:30:15 26° NW 18:33:05 18° N
YAOGAN 1 4.3 18:26:37 10° SSW 18:30:29 32° W 18:34:24 10° NNW
Lacrosse 5 2.7 18:26:17 10° SW 18:29:45 44° SW 18:29:45 44° SW
SL-4 R/B 4.3 18:29:47 10° WNW 18:30:59 19° NW 18:30:59 19° NW
Cosmos 1603 4.0 18:31:12 10° SW 18:36:36 66° W 18:36:36 66° W
USA 215 4.2 18:39:08 34° N 18:39:49 35° NNW 18:45:35 10° WNW
CZ-4 R/B 4.3 18:45:22 10° SW 18:47:33 14° W 18:49:43 10° WNW
Cosmos 1943 Rocket 3.5 18:45:23 10° NW 18:50:28 36° WSW 18:52:55 24° SSW
CZ-4C R/B 3.7 18:59:02 10° SW 19:01:22 28° WSW 19:01:22 28° WSW
Cosmos 2344 4.4 19:00:24 10° NW 19:10:18 84° SW 19:13:45 56° SSE
